Location: Campolattaro
(41.2833°N, 14.7333°E)
Time: 00:23:38
(UTC+00:00)

Iridium 4 Rocket - Pass Details

Date: 19 May 2025
Orbit: 582 x 886 km, 86.9° (Epoch: 23 June)

Event Time Altitude Azimuth Distance (km) Brightness Sun altitude
Rises 20:00:54 0° 353° (N) 3,187 7.6 -16.3°
Reaches altitude 10° 20:03:10 10° 350° (N) 2,305 6.8 -16.6°
Maximum altitude 20:08:17 60° 272° (W) 920 4.1 -17.3°
Enters shadow 20:13:24 12° 194° (SSW) 2,336 5.7 -17.9°
